Location: Saint-Palais-sur-Mer
(45.6429°N, 1.0859°W)
Time: 03:57:37
(UTC+01:00)

Courier 1B Rocket - Pass Details

Date: 16 February 2026
Orbit: 920 x 1201 km, 28.2° (Epoch: 16 March)

Event Time Altitude Azimuth Distance (km) Brightness Sun altitude
Rises 20:51:17 0° 216° (SW) 3,560 8.3 -24.8°
Reaches altitude 10° 20:55:34 10° 189° (S) 2,653 7.3 -25.5°
Enters shadow 20:57:15 12° 174° (S) 2,506 7.0 -25.8°
